EA3E-2 Weather Reports


Display with metric or nautical units.
time (UTC)temp
F
wind
direction
speed
MPH
gust
MPH
rain 1hr
in
rain 24hr
in
rain mn
in
humidity
%
barometer
mb
20260507115202 65 127 7.0 16.0 0.00 0.70 0.00 73 1012.7
20260507113402 66 127 6.0 13.0 0.00 0.70 0.00 72 1012.9
20260507112502 66 126 5.0 12.0 0.00 0.82 0.00 73 1012.9
20260507111602 65 127 6.0 12.0 0.00 0.83 0.00 74 1012.9
20260507110702 65 133 5.0 12.0 0.00 0.83 0.00 72 1013.0
20260507104902 65 141 3.0 8.0 0.00 0.83 0.00 72 1012.9
20260507104003 65 144 3.0 10.0 0.00 0.83 0.00 73 1013.1
20260507103102 65 148 2.0 12.0 0.00 0.83 0.00 73 1013.3
20260507102202 65 128 3.0 5.0 0.00 0.83 0.00 74 1013.3
20260507101302 65 130 2.0 9.0 0.00 0.83 0.00 73 1013.4
20260507100402 65 128 0.0 8.0 0.00 0.83 0.00 75 1013.4
20260507095502 64 0 0.0 0.0 0.00 0.83 0.00 76 1013.4
20260507093702 63 99 1.0 3.0 0.00 0.83 0.00 76 1013.4
20260507092802 63 102 1.0 4.0 0.00 0.83 0.00 75 1013.4
20260507091902 64 145 1.0 6.0 0.00 0.83 0.00 75 1013.3
20260507091002 63 152 0.0 5.0 0.00 0.83 0.00 76 1013.4
20260507085202 62 151 0.0 4.0 0.00 0.83 0.00 77 1013.4
20260507084302 62 120 0.0 1.0 0.00 0.83 0.00 78 1013.5
20260507082502 62 120 0.0 2.0 0.00 0.83 0.00 76 1013.7
20260507081602 61 0 0.0 0.0 0.00 0.83 0.00 77 1013.8
20260507075802 60 192 0.0 3.0 0.00 0.83 0.00 80 1013.9
20260507074902 60 235 0.0 2.0 0.00 0.83 0.00 79 1013.8
20260507073102 60 0 0.0 0.0 0.00 0.83 0.00 80 1013.7
20260507072202 59 0 0.0 0.0 0.00 0.83 0.00 82 1013.6
20260507071302 57 0 0.0 0.0 0.00 0.83 0.00 84 1013.6
20260507065502 56 0 0.0 0.0 0.00 0.83 0.00 89 1013.6
20260507064602 55 0 0.0 0.0 0.00 0.83 0.00 90 1013.6
20260507063702 54 0 0.0 0.0 0.00 0.83 0.00 90 1013.5
20260507062802 54 230 0.0 1.0 0.00 0.83 0.00 91 1013.6
20260507061902 53 230 2.0 3.0 0.00 0.83 0.00 91 1013.3
20260507061002 52 230 2.0 3.0 0.00 0.83 0.00 91 1013.3
20260507054302 51 239 3.0 4.0 0.00 0.83 0.00 92 1013.2
20260507053402 50 244 1.0 4.0 0.00 0.83 0.00 91 1013.3
20260507052502 50 247 1.0 4.0 0.00 0.83 0.00 92 1013.1
20260507051602 50 248 2.0 3.0 0.00 0.83 0.00 92 1013.1
20260507050702 50 246 2.0 3.0 0.00 0.83 0.00 91 1013.1
20260507044902 50 232 2.0 5.0 0.00 0.83 0.00 91 1013.1
20260507043102 51 219 1.0 3.0 0.00 0.83 0.00 91 1013.0
20260507042202 51 243 2.0 3.0 0.00 0.83 0.00 91 1013.1
20260507041302 51 244 1.0 4.0 0.00 0.83 0.00 91 1013.0
20260507040402 51 0 0.0 0.0 0.00 0.83 0.00 91 1013.0
20260507035502 52 0 0.0 0.0 0.00 0.83 0.00 91 1013.0
20260507034602 52 0 0.0 0.0 0.00 0.83 0.00 91 1012.9
20260507033702 52 0 0.0 0.0 0.00 0.83 0.00 91 1013.0
20260507032802 52 0 0.0 0.0 0.00 0.83 0.00 91 1013.0
20260507031902 53 0 0.0 0.0 0.00 0.83 0.00 91 1012.9
20260507031002 53 0 0.0 0.0 0.00 0.83 0.00 90 1012.8
20260507023402 54 0 0.0 0.0 0.00 0.83 0.00 90 1013.0
20260507022503 54 0 0.0 0.0 0.00 0.83 0.00 90 1013.0
20260507021602 54 0 0.0 0.0 0.00 0.83 0.00 90 1013.1
20260507015802 55 0 0.0 0.0 0.00 0.83 0.00 90 1013.0
20260507014902 55 0 0.0 0.0 0.00 0.83 0.00 90 1012.9
20260507014002 55 0 0.0 0.0 0.00 0.83 0.00 89 1013.1
20260507013102 55 0 0.0 0.0 0.00 0.83 0.00 89 1013.2
20260507012202 55 0 0.0 0.0 0.00 0.83 0.00 89 1013.3
20260507011302 55 0 0.0 0.0 0.00 0.83 0.00 88 1013.3
20260507010402 55 0 0.0 0.0 0.00 0.83 0.00 88 1013.4
20260507005502 55 244 2.0 3.0 0.00 0.83 0.00 88 1013.5
20260507004602 55 244 2.0 4.0 0.00 0.83 0.00 88 1013.4
20260507003702 55 240 2.0 6.0 0.00 0.83 0.00 88 1013.7
20260507002802 55 238 0.0 6.0 0.00 0.83 0.00 89 1013.6
20260507001902 55 0 0.0 0.0 0.00 0.83 0.00 91 1013.7
20260507001002 55 0 0.0 0.0 0.00 0.83 0.00 91 1013.7
20260506235202 55 0 0.0 0.0 0.00 0.83 0.00 91 1013.8
20260506234302 54 0 0.0 0.0 0.00 0.83 0.00 91 1013.8
20260506233402 55 0 0.0 0.0 0.00 0.83 0.00 91 1013.8
20260506232502 54 0 0.0 0.0 0.00 0.83 0.00 91 1013.8
20260506231602 54 264 1.0 2.0 0.00 0.83 0.00 91 1013.9
20260506230702 54 254 2.0 4.0 0.00 0.83 0.00 91 1013.8
20260506225802 54 225 1.0 3.0 0.00 0.83 0.00 91 1013.9
20260506224002 55 0 0.0 0.0 0.00 0.83 0.00 91 1013.9
20260506223101 55 0 0.0 0.0 0.00 0.83 0.00 91 1014.0
20260506222202 55 0 0.0 0.0 0.00 0.83 0.00 91 1013.9
20260506221302 55 0 0.0 0.0 0.00 0.83 0.00 91 1013.9
20260506215502 55 268 2.0 4.0 0.00 0.83 0.83 91 1013.9
20260506214602 55 270 2.0 4.0 0.00 0.83 0.83 91 1013.9
20260506213702 55 274 0.0 4.0 0.00 0.83 0.83 91 1013.9
20260506212801 55 0 1.0 0.0 0.00 0.83 0.83 92 1013.8
20260506211902 55 277 1.0 3.0 0.00 0.83 0.83 92 1013.9
20260506211001 56 0 0.0 0.0 0.00 0.83 0.83 91 1013.8
20260506203402 56 0 0.0 0.0 0.00 0.83 0.83 91 1013.8
20260506202502 56 0 0.0 0.0 0.00 0.83 0.83 91 1013.8
20260506201601 56 0 0.0 0.0 0.00 0.83 0.83 91 1013.7
20260506200702 56 0 0.0 0.0 0.00 0.83 0.83 91 1013.6
20260506195801 56 280 1.0 2.0 0.00 0.83 0.83 91 1013.5
20260506194901 56 280 0.0 4.0 0.00 0.83 0.83 91 1013.3
20260506194002 56 279 1.0 3.0 0.00 0.83 0.83 91 1013.1
20260506193101 56 280 2.0 3.0 0.00 0.83 0.83 91 1013.1
20260506192202 56 280 2.0 4.0 0.00 0.83 0.83 91 1012.9
20260506191301 56 283 2.0 3.0 0.00 0.83 0.83 91 1012.9
20260506190401 56 288 3.0 6.0 0.00 0.83 0.83 91 1012.8
20260506185502 56 291 3.0 6.0 0.00 0.83 0.83 91 1012.8
20260506184602 56 283 3.0 8.0 0.00 0.83 0.83 91 1012.7
20260506183701 56 280 3.0 6.0 0.00 0.83 0.83 91 1012.6
20260506182802 56 301 4.0 8.0 0.00 0.83 0.83 91 1012.6
20260506181902 56 341 3.0 6.0 0.00 0.83 0.83 91 1012.4
20260506175201 57 0 0.0 0.0 0.01 0.83 0.83 90 1011.9
20260506172501 57 90 3.0 7.0 0.02 0.83 0.83 90 1011.6
20260506171601 57 99 3.0 6.0 0.02 0.83 0.83 89 1011.7
20260506170701 57 82 3.0 7.0 0.02 0.83 0.83 89 1011.4
20260506165801 57 14 3.0 5.0 0.01 0.82 0.83 89 1011.6
20260506164901 57 50 4.0 6.0 0.00 0.81 0.81 88 1011.8
20260506164001 57 63 3.0 6.0 0.00 0.81 0.81 88 1011.6
20260506163101 56 79 4.0 9.0 0.00 0.81 0.81 88 1011.6
20260506161301 57 71 8.0 12.0 0.35 0.81 0.81 87 1011.4
20260506160402 56 98 9.0 15.0 0.69 0.81 0.81 87 1011.4
20260506155501 56 89 10.0 16.0 0.69 0.81 0.81 89 1011.2
20260506154601 55 90 13.0 22.0 0.69 0.81 0.81 89 1011.2
20260506153701 54 62 11.0 19.0 0.69 0.81 0.81 90 1011.0
20260506152801 53 36 10.0 21.0 0.68 0.80 0.80 89 1010.8
20260506151001 57 1 9.0 27.0 0.13 0.31 0.31 83 1010.8
20260506145201 63 149 13.0 23.0 0.00 0.42 0.13 76 1009.5
20260506144302 63 147 13.0 23.0 0.00 0.65 0.13 75 1009.6
20260506143401 63 146 13.0 28.0 0.00 0.65 0.13 76 1009.7
20260506141601 63 129 12.0 21.0 0.00 0.65 0.13 75 1009.7
20260506140701 63 133 11.0 18.0 0.00 0.65 0.13 74 1010.1
20260506135801 63 126 9.0 19.0 0.00 0.65 0.13 75 1010.2
20260506134901 63 140 9.0 15.0 0.00 0.65 0.13 76 1010.5
20260506131301 63 147 9.0 16.0 0.00 0.65 0.13 76 1010.9
20260506125501 63 146 8.0 15.0 0.00 0.65 0.13 76 1010.9
20260506124601 62 149 8.0 14.0 0.00 0.65 0.13 77 1011.1
20260506122801 62 123 6.0 13.0 0.06 0.68 0.13 78 1011.2
20260506121901 61 136 8.0 12.0 0.13 0.71 0.13 80 1011.2
20260506121001 61 142 8.0 15.0 0.13 0.71 0.13 78 1011.2